カタログに戻る

YUXING-2 09

運用中科学SSO
NORAD 66998·PAYLOAD·🇨🇳 China
この衛星名は、まだ公式ソースで確認されていません。

打ち上げ Dec 10, 2025 から Jiuquan Satellite Launch Center

Loading…

次のパス (今後24時間)

TLE

最新Source: Space-Track

元期: Sep 14, 2026, 03:49 UTC

1 66998U 25292F   26257.15925441  .00004002  00000-0  26869-3 0  9991
2 66998  97.6283 332.3363 0015398  65.3801 294.9029 15.07288337 41854

AllMySatでYUXING-2 09をリアルタイム追跡

Download on the App Store